| time (UTC) | temp F | wind direction | speed MPH | gust MPH | rain 1hr in | rain 24hr in | rain mn in | humidity % | barometer mb |
| 20260905091605 | 65 | 0 | 0.0 | 1.0 | 0.00 | 0.11 | 0.00 | 93 | 1012.7 |
| 20260905090103 | 65 | 0 | 0.0 | 1.0 | 0.00 | 0.11 | 0.00 | 93 | 1012.1 |
| 20260905084610 | 64 | 0 | 0.0 | 1.0 | 0.00 | 0.12 | 0.00 | 93 | 1012.1 |
| 20260905083103 | 64 | 0 | 0.0 | 1.0 | 0.00 | 0.12 | 0.00 | 93 | 1012.5 |
| 20260905081605 | 64 | 0 | 0.0 | 1.0 | 0.00 | 0.12 | 0.00 | 92 | 1012.6 |
| 20260905080121 | 64 | 0 | 0.0 | 0.0 | 0.00 | 0.12 | 0.00 | 91 | 1012.5 |
| 20260905074606 | 65 | 0 | 0.0 | 1.0 | 0.00 | 0.12 | 0.00 | 92 | 1012.5 |
| 20260905073111 | 65 | 0 | 0.0 | 0.0 | 0.00 | 0.12 | 0.00 | 91 | 1012.7 |
| 20260905071603 | 65 | 0 | 0.0 | 0.0 | 0.00 | 0.12 | 0.00 | 91 | 1012.8 |
| 20260905070101 | 65 | 0 | 0.0 | 0.0 | 0.00 | 0.12 | 0.00 | 91 | 1013.1 |
| 20260905064559 | 66 | 0 | 0.0 | 0.0 | 0.00 | 0.12 | 0.00 | 92 | 1013.3 |
| 20260905063103 | 66 | 0 | 0.0 | 0.0 | 0.00 | 0.12 | 0.00 | 92 | 1013.7 |
| 20260905061607 | 65 | 0 | 0.0 | 0.0 | 0.00 | 0.12 | 0.00 | 92 | 1013.7 |
| 20260905060109 | 65 | 0 | 0.0 | 0.0 | 0.00 | 0.12 | 0.00 | 92 | 1013.7 |
| 20260905054608 | 65 | 0 | 0.0 | 0.0 | 0.00 | 0.12 | 0.00 | 92 | 1013.8 |
| 20260905053058 | 65 | 0 | 0.0 | 1.0 | 0.00 | 0.12 | 0.00 | 92 | 1013.8 |
| 20260905051611 | 64 | 0 | 0.0 | 1.0 | 0.00 | 0.12 | 0.00 | 91 | 1013.9 |
| 20260905050106 | 64 | 0 | 0.0 | 1.0 | 0.00 | 0.12 | 0.00 | 91 | 1013.8 |
| 20260905044605 | 65 | 0 | 0.0 | 0.0 | 0.00 | 0.12 | 0.00 | 90 | 1013.8 |
| 20260905043100 | 65 | 0 | 0.0 | 1.0 | 0.00 | 0.12 | 0.00 | 90 | 1013.8 |
| 20260905041611 | 65 | 0 | 0.0 | 1.0 | 0.00 | 0.12 | 0.00 | 90 | 1013.6 |
| 20260905040112 | 65 | 0 | 0.0 | 0.0 | 0.00 | 0.12 | 0.00 | 89 | 1013.6 |
| 20260905034607 | 66 | 0 | 0.0 | 0.0 | 0.00 | 0.12 | 0.12 | 89 | 1013.6 |
| 20260905033109 | 66 | 0 | 0.0 | 0.0 | 0.00 | 0.12 | 0.12 | 89 | 1013.7 |
| 20260905031616 | 66 | 0 | 0.0 | 0.0 | 0.00 | 0.12 | 0.12 | 89 | 1013.8 |
| 20260905030111 | 66 | 0 | 0.0 | 0.0 | 0.00 | 0.12 | 0.12 | 89 | 1013.6 |
| 20260905024613 | 67 | 0 | 0.0 | 0.0 | 0.00 | 0.12 | 0.12 | 88 | 1013.7 |
| 20260905023107 | 67 | 0 | 0.0 | 0.0 | 0.00 | 0.12 | 0.12 | 88 | 1013.6 |
| 20260905021615 | 68 | 0 | 0.0 | 0.0 | 0.00 | 0.12 | 0.12 | 89 | 1013.7 |
| 20260905020113 | 68 | 0 | 0.0 | 1.0 | 0.00 | 0.12 | 0.12 | 88 | 1013.9 |
| 20260905014605 | 68 | 0 | 0.0 | 0.0 | 0.00 | 0.17 | 0.12 | 88 | 1013.8 |
| 20260905013120 | 69 | 0 | 0.0 | 0.0 | 0.00 | 0.17 | 0.12 | 89 | 1013.8 |
| 20260905011614 | 69 | 0 | 0.0 | 0.0 | 0.00 | 0.17 | 0.12 | 87 | 1013.8 |
| 20260905010111 | 69 | 0 | 0.0 | 0.0 | 0.00 | 0.17 | 0.12 | 87 | 1013.7 |
| 20260905004607 | 70 | 0 | 0.0 | 1.0 | 0.00 | 0.45 | 0.12 | 87 | 1013.6 |
| 20260905003102 | 70 | 0 | 0.0 | 1.0 | 0.00 | 0.45 | 0.12 | 87 | 1013.6 |
| 20260905001604 | 71 | 0 | 0.0 | 0.0 | 0.00 | 0.45 | 0.12 | 86 | 1013.7 |
| 20260905000109 | 72 | 0 | 0.0 | 0.0 | 0.00 | 0.45 | 0.12 | 85 | 1013.7 |
| 20260904234608 | 73 | 0 | 0.0 | 2.0 | 0.00 | 0.73 | 0.12 | 85 | 1013.8 |
| 20260904233100 | 74 | 0 | 0.0 | 2.0 | 0.00 | 0.73 | 0.12 | 84 | 1013.8 |
| 20260904231602 | 75 | 0 | 0.0 | 1.0 | 0.00 | 0.73 | 0.12 | 83 | 1013.7 |
| 20260904230113 | 76 | 0 | 0.0 | 1.0 | 0.00 | 0.73 | 0.12 | 83 | 1013.7 |
| 20260904224622 | 77 | 0 | 0.0 | 1.0 | 0.00 | 0.73 | 0.12 | 82 | 1013.4 |
| 20260904223111 | 77 | 0 | 0.0 | 1.0 | 0.00 | 0.73 | 0.12 | 81 | 1013.3 |
| 20260904221629 | 78 | 0 | 0.0 | 1.0 | 0.00 | 0.73 | 0.12 | 80 | 1013.2 |
| 20260904220108 | 79 | 0 | 0.0 | 2.0 | 0.00 | 0.73 | 0.12 | 78 | 1013.0 |
| 20260904214607 | 79 | 0 | 0.0 | 4.0 | 0.00 | 1.73 | 0.12 | 77 | 1012.9 |
| 20260904213104 | 79 | 0 | 1.0 | 5.0 | 0.00 | 1.73 | 0.12 | 76 | 1012.9 |
| 20260904211607 | 80 | 344 | 1.0 | 6.0 | 0.00 | 1.73 | 0.12 | 76 | 1012.8 |
| 20260904210120 | 79 | 342 | 0.0 | 4.0 | 0.00 | 1.73 | 0.12 | 79 | 1012.8 |
| 20260904204623 | 78 | 0 | 0.0 | 3.0 | 0.00 | 1.73 | 0.12 | 80 | 1013.1 |
| 20260904203102 | 77 | 0 | 0.0 | 2.0 | 0.00 | 1.73 | 0.12 | 82 | 1013.2 |
| 20260904201633 | 77 | 36 | 0.0 | 3.0 | 0.00 | 1.73 | 0.12 | 81 | 1013.4 |
| 20260904200123 | 77 | 0 | 0.0 | 3.0 | 0.00 | 1.73 | 0.12 | 82 | 1013.4 |
| 20260904194606 | 76 | 0 | 0.0 | 3.0 | 0.00 | 1.73 | 0.12 | 83 | 1013.6 |
| 20260904193108 | 76 | 211 | 1.0 | 3.0 | 0.00 | 1.73 | 0.12 | 84 | 1013.7 |
| 20260904191608 | 75 | 118 | 0.0 | 6.0 | 0.00 | 1.73 | 0.12 | 84 | 1014.3 |
| 20260904190108 | 75 | 0 | 1.0 | 7.0 | 0.00 | 1.73 | 0.12 | 84 | 1014.9 |
| 20260904184607 | 76 | 0 | 2.0 | 7.0 | 0.00 | 1.73 | 0.12 | 86 | 1014.8 |
| 20260904183105 | 75 | 0 | 0.0 | 6.0 | 0.00 | 1.73 | 0.12 | 87 | 1015.0 |
| 20260904181607 | 74 | 115 | 1.0 | 6.0 | 0.00 | 1.73 | 0.12 | 87 | 1014.9 |
| 20260904180112 | 74 | 190 | 0.0 | 4.0 | 0.00 | 1.73 | 0.12 | 90 | 1015.3 |
| 20260904174608 | 74 | 0 | 1.0 | 5.0 | 0.00 | 1.73 | 0.12 | 91 | 1015.3 |
| 20260904173104 | 73 | 0 | 0.0 | 2.0 | 0.00 | 1.73 | 0.12 | 91 | 1015.3 |
| 20260904171623 | 72 | 0 | 0.0 | 3.0 | 0.00 | 1.73 | 0.12 | 91 | 1015.2 |
| 20260904170110 | 72 | 5 | 1.0 | 4.0 | 0.00 | 1.73 | 0.12 | 91 | 1015.3 |
| 20260904164607 | 72 | 0 | 0.0 | 4.0 | 0.02 | 1.73 | 0.12 | 91 | 1015.5 |
| 20260904163104 | 72 | 0 | 0.0 | 2.0 | 0.11 | 1.73 | 0.12 | 91 | 1015.8 |
| 20260904161612 | 72 | 0 | 0.0 | 1.0 | 0.11 | 1.73 | 0.12 | 91 | 1015.9 |
| 20260904160107 | 72 | 0 | 0.0 | 3.0 | 0.11 | 1.73 | 0.12 | 90 | 1016.2 |
| 20260904154610 | 73 | 0 | 0.0 | 4.0 | 0.09 | 1.71 | 0.10 | 88 | 1016.6 |
| 20260904153116 | 74 | 193 | 0.0 | 4.0 | 0.00 | 1.62 | 0.01 | 88 | 1016.8 |
| 20260904151609 | 74 | 209 | 1.0 | 5.0 | 0.00 | 1.62 | 0.01 | 87 | 1016.1 |
| 20260904150104 | 74 | 0 | 0.0 | 5.0 | 0.00 | 1.62 | 0.01 | 89 | 1016.0 |
| 20260904144615 | 73 | 0 | 0.0 | 2.0 | 0.00 | 1.62 | 0.01 | 89 | 1015.7 |
| 20260904143122 | 73 | 0 | 1.0 | 3.0 | 0.00 | 1.62 | 0.01 | 90 | 1015.6 |
| 20260904141606 | 72 | 0 | 0.0 | 1.0 | 0.00 | 1.62 | 0.01 | 92 | 1015.6 |
| 20260904140107 | 71 | 0 | 0.0 | 2.0 | 0.00 | 1.62 | 0.01 | 92 | 1015.5 |
| 20260904134604 | 71 | 0 | 1.0 | 2.0 | 0.00 | 1.66 | 0.01 | 92 | 1015.5 |
| 20260904133116 | 70 | 0 | 0.0 | 2.0 | 0.00 | 1.66 | 0.01 | 93 | 1015.5 |
| 20260904131605 | 70 | 235 | 0.0 | 2.0 | 0.00 | 1.66 | 0.01 | 93 | 1015.4 |
| 20260904130109 | 70 | 355 | 0.0 | 2.0 | 0.00 | 1.66 | 0.01 | 94 | 1015.5 |
| 20260904124606 | 69 | 355 | 1.0 | 3.0 | 0.00 | 1.72 | 0.01 | 94 | 1015.5 |
| 20260904123106 | 68 | 0 | 0.0 | 2.0 | 0.00 | 1.72 | 0.01 | 93 | 1015.6 |
| 20260904121603 | 68 | 0 | 0.0 | 2.0 | 0.00 | 1.72 | 0.01 | 94 | 1015.4 |
| 20260904120109 | 67 | 0 | 0.0 | 1.0 | 0.00 | 1.72 | 0.01 | 94 | 1015.4 |
| 20260904114607 | 67 | 0 | 0.0 | 0.0 | 0.00 | 1.87 | 0.01 | 93 | 1015.5 |
| 20260904113109 | 67 | 0 | 0.0 | 1.0 | 0.00 | 1.87 | 0.01 | 93 | 1015.4 |
| 20260904111604 | 67 | 0 | 0.0 | 0.0 | 0.00 | 1.87 | 0.01 | 93 | 1015.1 |
| 20260904110117 | 67 | 0 | 0.0 | 0.0 | 0.00 | 1.87 | 0.01 | 93 | 1015.0 |
| 20260904104607 | 67 | 0 | 0.0 | 1.0 | 0.00 | 2.02 | 0.01 | 93 | 1014.7 |
| 20260904103105 | 67 | 0 | 0.0 | 1.0 | 0.00 | 2.02 | 0.01 | 93 | 1014.9 |
| 20260904101607 | 67 | 0 | 0.0 | 1.0 | 0.00 | 2.02 | 0.01 | 93 | 1015.3 |
| 20260904100107 | 67 | 0 | 0.0 | 2.0 | 0.00 | 2.02 | 0.01 | 93 | 1015.2 |
| 20260904094607 | 67 | 0 | 0.0 | 2.0 | 0.01 | 2.02 | 0.01 | 93 | 1015.1 |
| 20260904093107 | 67 | 0 | 0.0 | 4.0 | 0.01 | 2.02 | 0.01 | 93 | 1015.1 |